This demonstration page uses our WeatherBlox Daily Observations layout. Learn more.

Left ArrowRight Arrow

Hourly Observations for December 15, 2020

Temp ( °F °C ) Dew Point ( °F °C ) Humidity (%) Winds ( mph kmh ) Pressure ( in mb ) Visibility ( mi km ) Precip ( " mm )
12:52 am 00:52 Cloudy 19 -7.2 12 -11.1 74 74 E 3 6 30.35 1028 10 16 0.00 0.00
1:52 am 01:52 Cloudy 19 -7.2 12 -11.1 74 74 SE 5 7 30.36 1028 10 16 0.00 0.00
2:52 am 02:52 Cloudy 18 -7.8 12 -11.1 77 77 ESE 5 7 30.35 1028 10 16 0.00 0.00
3:52 am 03:52 Cloudy 18 -7.8 11 -11.7 74 74 ESE 6 9 30.33 1027 10 16 0.00 0.00
4:52 am 04:52 Cloudy 18 -7.8 11 -11.7 74 74 ESE 6 9 30.32 1027 10 16 0.00 0.00
5:52 am 05:52 Cloudy 18 -7.8 11 -11.7 74 74 SE 9 15 30.31 1027 10 16 0.00 0.00
6:52 am 06:52 Mostly Cloudy 17 -8.3 10 -12.2 74 74 SE 5 7 30.33 1027 10 16 0.00 0.00
7:52 am 07:52 Mostly Cloudy 16 -8.9 10 -12.2 77 77 Calm 30.33 1027 10 16 0.00 0.00
8:52 am 08:52 Mostly Cloudy 17 -8.3 11 -11.7 77 77 ESE 3 6 30.35 1028 10 16 0.00 0.00
9:52 am 09:52 Cloudy 19 -7.2 12 -11.1 74 74 ESE 7 11 30.35 1028 10 16 0.00 0.00
10:52 am 10:52 Cloudy 20 -6.7 14 -10 78 78 SE 8 13 30.35 1028 10 16 0.00 0.00
11:52 am 11:52 Cloudy 21 -6.1 15 -9.4 78 78 E 6 9 30.31 1026 10 16 0.00 0.00
12:52 pm 12:52 Cloudy 22 -5.6 16 -8.9 78 78 ESE 3 6 30.27 1025 10 16 0.00 0.00
1:52 pm 13:52 Cloudy 23 -5 17 -8.3 78 78 Calm 30.24 1024 10 16 0.00 0.00
2:52 pm 14:52 Cloudy 23 -5 17 -8.3 78 78 Calm 30.23 1024 10 16 0.00 0.00
3:52 pm 15:52 Cloudy 24 -4.4 17 -8.3 75 75 E 3 6 30.20 1023 10 16 0.00 0.00
4:52 pm 16:52 Cloudy 23 -5 17 -8.3 78 78 ENE 6 9 30.21 1023 10 16 0.00 0.00
5:52 pm 17:52 Cloudy 22 -5.6 16 -8.9 78 78 ENE 5 7 30.21 1023 10 16 0.00 0.00
6:52 pm 18:52 Cloudy 23 -5 16 -8.9 74 74 Calm 30.21 1023 10 16 0.00 0.00
7:52 pm 19:52 Cloudy 22 -5.6 16 -8.9 78 78 Calm 30.21 1023 10 16 0.00 0.00
8:52 pm 20:52 Cloudy 22 -5.6 16 -8.9 78 78 ESE 3 6 30.19 1022 10 16 0.00 0.00
9:52 pm 21:52 Cloudy 21 -6.1 16 -8.9 81 81 SE 8 13 30.18 1022 10 16 0.00 0.00
10:52 pm 22:52 Cloudy 20 -6.7 16 -8.9 85 85 Calm 30.17 1022 10 16 0.00 0.00
11:52 pm 23:52 Mostly Cloudy 20 -6.7 16 -8.9 85 85 Calm 30.16 1021 10 16 0.00 0.00

Powered by AerisWeather